This is the latest recevied weather packets stored in our database for station/object N8HON. If no packets are shown the sender has not sent any weather packets the latest 10 day(s).
| Time | Temp. | Humidity | Pressure | Rain* | Wind** | Luminosity | Snow |
|---|---|---|---|---|---|---|---|
| 1778203297 | 10° C | 57% | 1010.7 hPa | 0 mm | - | 0 W/m² | - |
| 1778202996 | 10.56° C | 56% | 1010.6 hPa | 0 mm | - | 0 W/m² | - |
| 1778202693 | 10° C | 57% | 1010.5 hPa | 0 mm | - | 0 W/m² | - |
| 1778202389 | 10.56° C | 56% | 1010.4 hPa | 0 mm | - | 0 W/m² | - |
| 1778202088 | 10.56° C | 57% | 1010.4 hPa | 0 mm | - | 0 W/m² | - |
| 1778201784 | 10.56° C | 56% | 1010 hPa | 0 mm | - | 0 W/m² | - |
| 1778201480 | 10.56° C | 57% | 1010.1 hPa | 0 mm | - | 0 W/m² | - |
| 1778201176 | 11.11° C | 55% | 1010.1 hPa | 0 mm | - | 0 W/m² | - |
| 1778200873 | 11.11° C | 54% | 1010.1 hPa | 0 mm | - | 0 W/m² | - |
| 1778200570 | 10.56° C | 58% | 1010.1 hPa | 0 mm | - | 0 W/m² | - |
| 1778200268 | 11.11° C | 55% | 1010 hPa | 0 mm | - | 0 W/m² | - |
| 1778199964 | 11.67° C | 54% | 1010 hPa | 0 mm | - | 0 W/m² | - |
| 1778199661 | 11.67° C | 53% | 1009.9 hPa | 0 mm | - | 0 W/m² | - |
| 1778199356 | 11.67° C | 53% | 1010.1 hPa | 0 mm | - | 0 W/m² | - |
| 1778199053 | 12.22° C | 52% | 1009.9 hPa | 0 mm | - | 3 W/m² | - |
| 1778198749 | 12.22° C | 50% | 1009.7 hPa | 0 mm | - | 5 W/m² | - |
| 1778198446 | 12.22° C | 53% | 1009.6 hPa | 0 mm | - | 9 W/m² | - |
| 1778198143 | 12.22° C | 50% | 1009.5 hPa | 0 mm | - | 12 W/m² | - |
| 1778197840 | 12.22° C | 49% | 1009.6 hPa | 0 mm | - | 15 W/m² | - |
| 1778197536 | 12.22° C | 48% | 1009.3 hPa | 0 mm | - | 19 W/m² | - |
| 1778197233 | 12.78° C | 51% | 1009.3 hPa | 0 mm | - | 24 W/m² | - |
| 1778196930 | 12.78° C | 48% | 1009.4 hPa | 0 mm | - | 24 W/m² | - |
| 1778196629 | 12.78° C | 51% | 1009.2 hPa | 0 mm | - | 30 W/m² | - |
| 1778196325 | 13.33° C | 47% | 1009.3 hPa | 0 mm | - | 36 W/m² | - |
| 1778196022 | 13.33° C | 50% | 1009.2 hPa | 0 mm | - | 38 W/m² | - |
* Rain latest hour (hover to see other rain measurements)
** Current wind speed in m/s (hover to see current wind gust speed)